Lid_Strength_Index
18 19 20 22 21 21 19 20 21 21 19 20 20 20 19 17 18 18 19 19 18 17 16 15 15 15 15 15 15 15 15 15 15 15 15 14 15 15 15 14 14 14 14 14
19 22 22 20 19 20 20 21 22 21 19 20 21 21 19 18 17 17 18 18 18 18 17 16 16 16 15 15 15 15 15 15 15 14 14 14 14 14 15 15 15 14 15 15
21 21 18 18 20 19 21 21 23 21 20 21 22 22 21 20 18 17 17 16 17 17 17 17 17 16 16 16 15 15 15 15 15 14 14 14 14 14 15 15 15 15 15 15
21 20 18 20 20 19 20 20 20 20 21 23 22 24 22 21 20 18 17 18 17 17 17 17 16 16 16 15 15 14 14 14 15 15 15 15 16 16 16 16 15 15 15 15
22 22 21 21 20 19 20 19 20 19 22 23 23 23 22 21 20 19 17 16 17 16 16 16 16 15 15 14 15 14 15 15 15 15 15 15 16 15 15 16 15 15 15 15
21 20 21 21 19 19 18 19 19 21 22 26 24 23 22 21 20 18 16 16 16 16 16 16 15 15 15 15 14 15 15 15 14 15 15 15 16 16 16 16 16 16 15 15
22 22 21 19 21 19 19 22 25 26 27 25 23 24 20 18 18 17 17 15 15 15 16 16 16 16 15 15 15 15 15 15 15 15 15 15 16 16 16 16 16 16 16 16
25 24 22 20 21 22 21 23 24 28 26 24 22 24 19 18 17 17 16 16 15 15 15 15 15 15 15 14 14 14 14 15 15 15 15 15 15 15 15 16 16 16 16 16
26 24 22 19 20 21 22 23 21 27 28 26 22 20 17 16 17 17 16 16 16 15 15 15 15 15 15 15 14 14 15 14 14 15 15 15 15 15 15 15 15 15 15 15
22 26 21 20 21 21 21 20 23 24 28 30 24 25 20 17 17 17 17 16 16 16 16 15 15 15 15 15 14 14 14 14 14 14 15 15 15 15 15 15 15 15 15 15
26 23 24 21 24 23 24 24 23 23 24 26 27 22 21 19 17 17 17 16 16 16 16 15 15 15 15 15 15 15 15 14 14 14 14 14 15 15 15 15 15 15 15 15
22 25 28 25 23 22 23 24 23 24 26 27 25 23 17 17 16 16 16 14 16 16 16 15 15 15 15 15 15 15 15 15 14 14 14 14 14 14 15 15 15 15 15 15
23 26 30 25 25 23 27 22 21 23 23 27 26 21 17 17 16 16 15 15 15 16 16 16 16 15 15 15 15 15 15 14 14 14 14 14 14 14 15 15 15 15 16 16
19 31 26 25 24 26 29 28 21 24 28 24 22 19 16 17 16 17 16 15 16 15 15 15 15 15 15 14 15 15 15 14 14 14 14 14 14 14 15 15 15 15 16 17
23 28 31 29 25 26 26 28 24 24 21 23 18 19 21 18 18 17 17 16 15 15 15 15 15 14 14 15 15 14 15 14 14 14 14 14 14 14 15 15 15 15 15 16
27 30 32 30 24 23 26 26 25 21 21 21 20 21 15 15 19 18 16 16 15 15 14 14 13 13 13 13 15 14 15 15 14 14 14 14 14 14 15 15 15 15 16 16
28 30 32 30 25 25 27 27 23 23 26 20 22 17 19 20 18 17 16 16 16 15 14 14 13 13 13 13 13 15 15 16 16 15 14 14 14 14 14 15 15 16 16 17
30 32 34 32 30 31 22 22 23 21 20 20 20 18 20 20 19 18 17 16 15 15 14 14 14 13 13 14 14 14 14 14 14 14 14 14 14 15 15 16 16 16 16 17
24 29 34 30 37 24 22 24 24 24 22 20 19 18 20 22 21 18 16 16 16 15 14 14 14 16 15 14 14 14 14 14 15 15 15 15 15 16 16 16 16 17 18 19
23 25 28 38 33 31 24 24 23 23 24 23 21 20 20 21 22 19 18 17 15 14 14 15 15 15 15 15 15 15 15 17 17 16 15 15 16 16 16 16 17 17 19 19
28 32 29 37 32 28 23 21 22 25 22 21 21 20 21 20 19 19 17 17 15 14 14 15 15 15 15 15 15 16 16 17 16 17 17 17 16 16 16 16 18 19 20 20
27 29 32 32 34 29 21 20 21 19 22 19 21 20 19 18 18 17 18 17 17 17 17 16 17 17 17 17 17 18 19 17 19 19 19 18 18 17 16 17 18 20 20 21
26 23 24 23 23 21 19 17 17 20 20 19 19 18 17 17 17 17 18 19 20 19 19 19 19 19 23 21 19 20 19 20 20 20 21 20 19 18 17 19 20 20 20 20
23 23 24 22 22 19 18 16 17 18 19 19 19 19 20 19 18 18 18 19 20 20 20 20 20 20 21 21 20 20 20 21 22 22 21 20 21 20 21 19 18 19 20 21
22 22 24 23 20 18 20 21 20 19 20 19 19 20 21 20 21 20 21 21 21 21 21 21 21 21 22 22 22 21 21 22 23 23 21 20 20 21 20 19 19 18 18 18
21 22 21 20 21 20 21 22 20 21 21 21 21 21 21 22 22 22 22 22 22 22 22 23 23 23 23 23 22 22 23 23 25 23 21 20 19 19 19 19 19 15 12 11